Regional Weather Roundup
Issued by NWS

Home | Current Version | Previous Version | Text Only | Print | Product List | Glossary On
Versions: 1 2 3 4 5 6 7 8 9 10 11 12 13 14 15 16 17 18 19 20 21 22 23 24 25 26 27 28 29 30 31 32 33 34 35 36 37 38 39 40 41 42 43 44 45 46 47 48 49 50
000
ASMX46 KSGX 211811
RWRMX

MEXICAN WEATHER ROUNDUP
NATIONAL WEATHER SERVICE SAN DIEGO CA
1100 AM PDT MON AUG 21 2017

BAJA CALIFORNIA

CITY           SKY/WX    TMP DP  RH WIND       PRES   REMARKS
ENSENADA NW      N/A     69  32  25 CALM      29.99S
LA PAZ         MOSUNNY   93  61  33 NE5       29.90
LORETO           N/A    N/A N/A N/A MISG        N/A
MEXICALI       SUNNY     93  48  21 N9        29.88
S.J. DEL CABO  MOSUNNY   90  68  48 CALM      29.91F
TIJUANA        SUNNY     72  61  68 W7        30.04R

NORTHWESTERN MEXICO

CITY           SKY/WX    TMP DP  RH WIND       PRES   REMARKS
CHIHUAHUA      SUNNY     75  64  69 CALM      30.21
CULIACAN       MOSUNNY   91  75  59 CALM      29.89  HX 102
GUAYMAS        MOSUNNY   93  81  66 CALM      29.84  HX 113
HERMOSILLO     MOSUNNY   95  72  46 CALM      29.93  HX 103
JUAREZ         MOSUNNY   75  63  64 CALM      30.18
LOS MOCHIS     MOSUNNY   91  68  46 CALM      29.90S HX  95
OBREGON        MOSUNNY   91  72  52 W3        29.87  HX  98

NORTHEASTERN MEXICO

CITY           SKY/WX    TMP DP  RH WIND       PRES   REMARKS
MATAMOROS      PTSUNNY   93  73  52 E10       29.99  HX 102
MONCLOVA       MOSUNNY   86  64  48 E9        30.06S
MONTERREY      MOSUNNY   88  64  45 SE8       30.03F
NUEVO LAREDO   PTSUNNY   91  68  46 SE9       30.02  HX  95
PIEDRAS NEGRAS MOSUNNY   91  70  49 SE7       30.06F HX  97
REYNOSA        PTSUNNY   90  66  45 NE10      29.99
SALTILLO       SUNNY     79  68  69 NE7       30.25F
TORREON        SUNNY     88  57  35 NE8       30.14F
VICTORIA       MOSUNNY   91  64  40 SE10      30.00

WESTERN MEXICO

CITY           SKY/WX    TMP DP  RH WIND       PRES   REMARKS
AGUASCALIENTES SUNNY     75  48  38 CALM      30.32
COLIMA         MOSUNNY   82  73  74 CALM      30.02F
DURANGO        SUNNY     73  54  49 N5        30.31
GUADALAJARA    MOSUNNY   75  57  53 N5        30.23
MANZANILLO     MOSUNNY   90  81  74 S6        29.88F HX 108
MAZATLAN       MOSUNNY   88  81  79 SW6       29.91S HX 105
PTO. VALLARTA  MOSUNNY   88  77  70 S5        29.89F HX 100
TEPIC            N/A    N/A N/A N/A MISG        N/A
URUAPAN        MOSUNNY   75  63  64 S7        30.22F
ZACATECAS      SUNNY     73  48  40 E9        30.35F

CENTRAL MEXICO

CITY           SKY/WX    TMP DP  RH WIND       PRES   REMARKS
CUERNAVACA     MOSUNNY   77  63  61 SW5       30.17F
LEON           MOSUNNY   75  55  50 E5        30.34F
MEXICO CITY    MOSUNNY   70  50  49 E7        30.37F
MORELIA        SUNNY     72  57  60 NW3       30.28
POZA RICA      MOSUNNY   93  75  55 NE7       30.05R HX 104
PUEBLA         MOSUNNY   70  48  46 NE3       30.36F
QUERETARO      MOSUNNY   72  55  56 E8        30.36F
S. LUIS POTOSI MOSUNNY   75  46  35 E9        30.29F
TAMPICO        MOSUNNY   84  75  74 CALM      29.99F
TOLUCA         PTSUNNY   68  50  52 NW6       30.41F
VERACRUZ       MOSUNNY   88  75  66 NE10      29.98F HX  97

SOUTHERN MEXICO

CITY           SKY/WX    TMP DP  RH WIND       PRES   REMARKS
ACAPULCO       PTSUNNY   88  77  70 S6        29.87F HX 100
B. DE HUATULCO PTSUNNY  N/A N/A N/A W12       29.89F
MINATITLAN     MOSUNNY   86  75  70 N12       29.93  HX  95
OAXACA         PTSUNNY   75  55  50 SW5       30.22F
PTO. ESCONDIDO PTSUNNY   86  73  66 SW7       29.94F
TAPACHULA      MOSUNNY   90  79  70 SW7       29.84S HX 105
TUX. GUTIERREZ PTSUNNY   84  70  61 CALM      29.98F
VILLAHERMOSA   PTSUNNY   86  73  66 E5        29.98F
ZIHUATANEJO    MOSUNNY   93  77  59 S7        29.89F HX 107

YUCATAN PENINSULA

CITY           SKY/WX    TMP DP  RH WIND       PRES   REMARKS
CAMPECHE       MOSUNNY   88  79  74 CALM      29.93F HX 102
CANCUN         CLOUDY    82  75  78 E9        29.97S
CHETUMAL       PTSUNNY   88  77  70 CALM      29.92  HX 100
C. DEL CARMEN  MOSUNNY  N/A N/A N/A NE7       29.96
COZUMEL        PTSUNNY   86  79  79 NE12      29.93F HX  99
MERIDA         PTSUNNY   93  73  52 E3        29.95F HX 102

$$





USA.gov is the U.S. government's official web portal to all federal, state and local government web resources and services.